Time,TemperatureF,DewpointF,PressureIn,WindDirection,WindDirectionDegrees,WindSpeedMPH,WindSpeedGustMPH,Humidity,HourlyPrecipIn,Conditions,Clouds,dailyrainin,SoftwareType,DateUTC
2013-09-13 00:08:00,78.2,73.0,29.83,West,275,2.0,5.0,83,0.00,,,0.00,weatherlink.com 1.10,2013-09-13 04:08:00,
2013-09-13 00:23:00,78.3,73.0,29.82,WNW,282,0.0,7.0,84,0.00,,,0.00,weatherlink.com 1.10,2013-09-13 04:23:00,
2013-09-13 00:38:00,77.9,73.0,29.82,WNW,282,0.0,5.0,84,0.00,,,0.00,weatherlink.com 1.10,2013-09-13 04:38:00,
2013-09-13 00:53:00,77.6,72.0,29.82,West,275,0.0,5.0,83,0.00,,,0.00,weatherlink.com 1.10,2013-09-13 04:53:00,
2013-09-13 01:08:00,77.7,73.0,29.82,WNW,286,0.0,8.0,84,0.00,,,0.00,weatherlink.com 1.10,2013-09-13 05:08:00,
2013-09-13 01:23:00,77.7,73.0,29.81,WNW,300,0.0,6.0,84,0.00,,,0.00,weatherlink.com 1.10,2013-09-13 05:23:00,
2013-09-13 01:38:00,77.6,72.0,29.81,WSW,244,2.0,4.0,83,0.00,,,0.00,weatherlink.com 1.10,2013-09-13 05:38:00,
2013-09-13 01:53:00,77.7,72.0,29.81,West,278,0.0,7.0,83,0.00,,,0.00,weatherlink.com 1.10,2013-09-13 05:53:00,
2013-09-13 02:08:00,77.6,72.0,29.81,West,276,0.0,8.0,83,0.00,,,0.00,weatherlink.com 1.10,2013-09-13 06:08:00,
2013-09-13 02:23:00,77.4,72.0,29.80,WSW,241,0.0,6.0,83,0.00,,,0.00,weatherlink.com 1.10,2013-09-13 06:23:00,
2013-09-13 02:38:00,77.1,72.0,29.79,West,274,0.0,10.0,84,0.00,,,0.00,weatherlink.com 1.10,2013-09-13 06:38:00,
2013-09-13 02:53:00,76.8,72.0,29.79,WSW,246,5.0,9.0,84,0.00,,,0.00,weatherlink.com 1.10,2013-09-13 06:53:00,
2013-09-13 03:09:00,76.5,71.0,29.78,WSW,247,2.0,5.0,84,0.00,,,0.00,weatherlink.com 1.10,2013-09-13 07:09:00,
2013-09-13 03:24:00,76.4,71.0,29.78,WNW,286,0.0,10.0,84,0.00,,,0.00,weatherlink.com 1.10,2013-09-13 07:24:00,
2013-09-13 03:39:00,76.1,71.0,29.78,West,275,0.0,7.0,83,0.00,,,0.00,weatherlink.com 1.10,2013-09-13 07:39:00,
2013-09-13 03:54:00,76.0,71.0,29.77,WNW,283,5.0,9.0,83,0.00,,,0.00,weatherlink.com 1.10,2013-09-13 07:54:00,
2013-09-13 04:09:00,75.7,71.0,29.77,WSW,246,2.0,4.0,84,0.00,,,0.00,weatherlink.com 1.10,2013-09-13 08:09:00,
2013-09-13 04:24:00,75.6,71.0,29.77,SSE,158,0.0,5.0,84,0.00,,,0.00,weatherlink.com 1.10,2013-09-13 08:24:00,
2013-09-13 04:39:00,75.3,70.0,29.77,West,271,0.0,5.0,84,0.00,,,0.00,weatherlink.com 1.10,2013-09-13 08:39:00,
2013-09-13 04:54:00,75.1,70.0,29.76,West,271,0.0,5.0,84,0.00,,,0.00,weatherlink.com 1.10,2013-09-13 08:54:00,
2013-09-13 05:09:00,75.0,70.0,29.76,West,271,0.0,4.0,84,0.00,,,0.00,weatherlink.com 1.10,2013-09-13 09:09:00,
2013-09-13 05:24:00,74.9,70.0,29.76,SW,232,3.0,3.0,84,0.00,,,0.00,weatherlink.com 1.10,2013-09-13 09:24:00,
2013-09-13 05:39:00,74.9,70.0,29.76,West,273,3.0,5.0,84,0.00,,,0.00,weatherlink.com 1.10,2013-09-13 09:39:00,
2013-09-13 05:54:00,74.7,70.0,29.77,WNW,298,0.0,7.0,85,0.00,,,0.00,weatherlink.com 1.10,2013-09-13 09:54:00,
2013-09-13 06:09:00,74.4,70.0,29.76,West,266,0.0,4.0,85,0.00,,,0.00,weatherlink.com 1.10,2013-09-13 10:09:00,
2013-09-13 06:24:00,74.1,70.0,29.76,West,271,0.0,5.0,86,0.00,,,0.00,weatherlink.com 1.10,2013-09-13 10:24:00,
2013-09-13 06:39:00,73.9,70.0,29.76,SW,228,4.0,4.0,86,0.00,,,0.00,weatherlink.com 1.10,2013-09-13 10:39:00,
2013-09-13 06:54:00,73.9,70.0,29.77,West,273,2.0,8.0,87,0.00,,,0.00,weatherlink.com 1.10,2013-09-13 10:54:00,
2013-09-13 07:09:00,73.7,69.0,29.77,West,273,0.0,8.0,86,0.00,,,0.00,weatherlink.com 1.10,2013-09-13 11:09:00,
2013-09-13 07:24:00,73.8,70.0,29.77,WNW,297,2.0,6.0,87,0.00,,,0.00,weatherlink.com 1.10,2013-09-13 11:24:00,
2013-09-13 07:39:00,74.1,70.0,29.77,WNW,283,1.0,5.0,87,0.00,,,0.00,weatherlink.com 1.10,2013-09-13 11:39:00,
2013-09-13 07:54:00,74.7,71.0,29.77,West,273,3.0,5.0,87,0.00,,,0.00,weatherlink.com 1.10,2013-09-13 11:54:00,
2013-09-13 08:09:00,75.5,71.0,29.77,SSW,200,2.0,7.0,86,0.00,,,0.00,weatherlink.com 1.10,2013-09-13 12:09:00,
2013-09-13 08:24:00,76.1,72.0,29.78,West,261,0.0,5.0,86,0.00,,,0.00,weatherlink.com 1.10,2013-09-13 12:24:00,
2013-09-13 08:39:00,76.9,72.0,29.78,WNW,288,2.0,5.0,85,0.00,,,0.00,weatherlink.com 1.10,2013-09-13 12:39:00,
2013-09-13 08:54:00,78.2,73.0,29.78,WNW,287,1.0,4.0,84,0.00,,,0.00,weatherlink.com 1.10,2013-09-13 12:54:00,
2013-09-13 09:09:00,79.2,73.0,29.78,WNW,296,0.0,3.0,82,0.00,,,0.00,weatherlink.com 1.10,2013-09-13 13:09:00,
2013-09-13 09:24:00,78.2,72.0,29.79,WNW,301,0.0,6.0,82,0.00,,,0.00,weatherlink.com 1.10,2013-09-13 13:24:00,
2013-09-13 09:39:00,78.5,73.0,29.79,NW,306,0.0,4.0,83,0.00,,,0.00,weatherlink.com 1.10,2013-09-13 13:39:00,
2013-09-13 09:54:00,78.6,73.0,29.79,NW,306,1.0,4.0,82,0.00,,,0.00,weatherlink.com 1.10,2013-09-13 13:54:00,
2013-09-13 10:09:00,80.8,75.0,29.79,SW,233,0.0,4.0,81,0.00,,,0.00,weatherlink.com 1.10,2013-09-13 14:09:00,
2013-09-13 10:24:00,81.1,74.0,29.79,NW,320,0.0,4.0,79,0.00,,,0.00,weatherlink.com 1.10,2013-09-13 14:24:00,
2013-09-13 10:39:00,79.7,72.0,29.79,North,355,2.0,5.0,78,0.00,,,0.00,weatherlink.com 1.10,2013-09-13 14:39:00,
2013-09-13 10:54:00,79.7,73.0,29.79,North,355,0.0,4.0,81,0.00,,,0.00,weatherlink.com 1.10,2013-09-13 14:54:00,
2013-09-13 11:09:00,81.5,74.0,29.79,North,355,3.0,4.0,79,0.00,,,0.00,weatherlink.com 1.10,2013-09-13 15:09:00,
2013-09-13 11:24:00,82.4,73.0,29.79,West,277,0.0,7.0,74,0.00,,,0.00,weatherlink.com 1.10,2013-09-13 15:24:00,
2013-09-13 11:39:00,83.0,73.0,29.79,North,5,1.0,6.0,72,0.00,,,0.00,weatherlink.com 1.10,2013-09-13 15:39:00,
2013-09-13 11:54:00,82.8,73.0,29.78,North,5,0.0,4.0,73,0.00,,,0.00,weatherlink.com 1.10,2013-09-13 15:54:00,
2013-09-13 12:09:00,83.0,73.0,29.78,North,355,0.0,5.0,72,0.00,,,0.00,weatherlink.com 1.10,2013-09-13 16:09:00,
2013-09-13 12:24:00,82.3,72.0,29.78,North,360,0.0,6.0,72,0.00,,,0.00,weatherlink.com 1.10,2013-09-13 16:24:00,
2013-09-13 12:39:00,82.5,73.0,29.78,North,351,4.0,6.0,73,0.00,,,0.00,weatherlink.com 1.10,2013-09-13 16:39:00,
2013-09-13 12:54:00,83.9,73.0,29.77,North,350,1.0,3.0,70,0.00,,,0.00,weatherlink.com 1.10,2013-09-13 16:54:00,
2013-09-13 13:09:00,83.5,72.0,29.77,NNE,17,0.0,7.0,69,0.00,,,0.00,weatherlink.com 1.10,2013-09-13 17:09:00,
2013-09-13 13:24:00,84.3,73.0,29.76,NNE,20,4.0,7.0,68,0.00,,,0.00,weatherlink.com 1.10,2013-09-13 17:24:00,
2013-09-13 13:39:00,84.4,74.0,29.76,North,9,0.0,8.0,70,0.00,,,0.00,weatherlink.com 1.10,2013-09-13 17:39:00,
2013-09-13 13:54:00,84.6,74.0,29.75,North,360,0.0,5.0,71,0.00,,,0.00,weatherlink.com 1.10,2013-09-13 17:54:00,
2013-09-13 14:09:00,85.0,73.0,29.75,North,360,0.0,6.0,68,0.00,,,0.00,weatherlink.com 1.10,2013-09-13 18:09:00,
2013-09-13 14:24:00,84.8,72.0,29.75,NNW,327,0.0,7.0,66,0.00,,,0.00,weatherlink.com 1.10,2013-09-13 18:24:00,
2013-09-13 14:39:00,85.5,75.0,29.75,West,277,0.0,3.0,70,0.00,,,0.00,weatherlink.com 1.10,2013-09-13 18:39:00,
2013-09-13 14:54:00,86.2,75.0,29.74,SSW,209,4.0,8.0,70,0.00,,,0.00,weatherlink.com 1.10,2013-09-13 18:54:00,
2013-09-13 15:09:00,86.8,75.0,29.74,SSW,205,0.0,8.0,68,0.00,,,0.00,weatherlink.com 1.10,2013-09-13 19:09:00,
2013-09-13 15:24:00,86.0,76.0,29.74,SE,145,1.0,7.0,71,0.00,,,0.00,weatherlink.com 1.10,2013-09-13 19:24:00,
2013-09-13 15:39:00,86.0,75.0,29.73,SW,216,3.0,7.0,70,0.00,,,0.00,weatherlink.com 1.10,2013-09-13 19:39:00,
2013-09-13 15:55:00,86.3,75.0,29.73,SSW,192,1.0,7.0,70,0.00,,,0.00,weatherlink.com 1.10,2013-09-13 19:55:00,
2013-09-13 16:10:00,86.7,76.0,29.73,SSW,200,5.0,7.0,70,0.00,,,0.00,weatherlink.com 1.10,2013-09-13 20:10:00,
2013-09-13 16:25:00,85.8,75.0,29.74,South,181,5.0,6.0,70,0.00,,,0.00,weatherlink.com 1.10,2013-09-13 20:25:00,
2013-09-13 16:40:00,85.4,75.0,29.73,SSW,202,0.0,7.0,71,0.00,,,0.00,weatherlink.com 1.10,2013-09-13 20:40:00,
2013-09-13 16:55:00,85.3,76.0,29.74,South,178,0.0,5.0,73,0.00,,,0.00,weatherlink.com 1.10,2013-09-13 20:55:00,
2013-09-13 17:10:00,85.2,76.0,29.73,SSW,201,4.0,5.0,74,0.00,,,0.00,weatherlink.com 1.10,2013-09-13 21:10:00,
2013-09-13 17:25:00,84.6,76.0,29.74,SSW,197,1.0,5.0,75,0.00,,,0.00,weatherlink.com 1.10,2013-09-13 21:25:00,
2013-09-13 17:40:00,83.6,76.0,29.73,SSW,195,1.0,5.0,77,0.00,,,0.00,weatherlink.com 1.10,2013-09-13 21:40:00,
2013-09-13 17:55:00,82.6,76.0,29.73,South,189,2.0,5.0,79,0.00,,,0.00,weatherlink.com 1.10,2013-09-13 21:55:00,
2013-09-13 18:09:00,81.5,75.0,29.74,South,190,0.0,3.0,80,0.00,,,0.00,weatherlink.com 1.10,2013-09-13 22:09:00,
2013-09-13 18:24:00,80.6,75.0,29.73,South,190,1.0,1.0,82,0.00,,,0.00,weatherlink.com 1.10,2013-09-13 22:24:00,
2013-09-13 18:39:00,80.2,75.0,29.74,South,190,0.0,1.0,83,0.00,,,0.00,weatherlink.com 1.10,2013-09-13 22:39:00,
2013-09-13 18:54:00,79.6,74.0,29.74,South,190,0.0,0.0,84,0.00,,,0.00,weatherlink.com 1.10,2013-09-13 22:54:00,
2013-09-13 19:10:00,78.9,74.0,29.75,South,190,0.0,1.0,84,0.00,,,0.00,weatherlink.com 1.10,2013-09-13 23:10:00,
2013-09-13 19:25:00,78.2,74.0,29.75,South,190,0.0,0.0,86,0.00,,,0.00,weatherlink.com 1.10,2013-09-13 23:25:00,
2013-09-13 19:40:00,77.9,74.0,29.76,South,190,0.0,0.0,86,0.00,,,0.00,weatherlink.com 1.10,2013-09-13 23:40:00,
2013-09-13 19:55:00,77.8,74.0,29.76,South,190,0.0,0.0,87,0.00,,,0.00,weatherlink.com 1.10,2013-09-13 23:55:00,
2013-09-13 20:10:00,78.0,74.0,29.77,South,190,0.0,0.0,87,0.00,,,0.00,weatherlink.com 1.10,2013-09-14 00:10:00,
2013-09-13 20:24:00,78.1,74.0,29.78,South,190,0.0,0.0,87,0.00,,,0.00,weatherlink.com 1.10,2013-09-14 00:24:00,
2013-09-13 20:40:00,78.0,74.0,29.78,South,190,0.0,0.0,87,0.00,,,0.00,weatherlink.com 1.10,2013-09-14 00:40:00,
2013-09-13 20:55:00,77.2,73.0,29.79,South,190,0.0,1.0,86,0.00,,,0.00,weatherlink.com 1.10,2013-09-14 00:55:00,
2013-09-13 21:10:00,77.2,72.0,29.79,South,190,0.0,2.0,85,0.00,,,0.00,weatherlink.com 1.10,2013-09-14 01:10:00,
2013-09-13 21:25:00,77.6,72.0,29.79,South,190,0.0,2.0,83,0.00,,,0.00,weatherlink.com 1.10,2013-09-14 01:25:00,
2013-09-13 21:40:00,77.2,71.0,29.79,South,190,0.0,3.0,80,0.00,,,0.00,weatherlink.com 1.10,2013-09-14 01:40:00,
2013-09-13 21:55:00,77.3,70.0,29.80,SSW,198,1.0,3.0,79,0.00,,,0.00,weatherlink.com 1.10,2013-09-14 01:55:00,
2013-09-13 22:10:00,77.3,70.0,29.80,SSW,198,1.0,2.0,79,0.00,,,0.00,weatherlink.com 1.10,2013-09-14 02:10:00,
2013-09-13 22:25:00,77.4,70.0,29.80,SSW,196,0.0,1.0,79,0.00,,,0.00,weatherlink.com 1.10,2013-09-14 02:25:00,
2013-09-13 22:40:00,77.4,70.0,29.81,SSW,197,0.0,2.0,78,0.00,,,0.00,weatherlink.com 1.10,2013-09-14 02:40:00,
2013-09-13 22:55:00,77.4,71.0,29.81,South,186,1.0,2.0,80,0.00,,,0.00,weatherlink.com 1.10,2013-09-14 02:55:00,
2013-09-13 23:10:00,77.6,71.0,29.81,North,360,4.0,11.0,80,0.00,,,0.00,weatherlink.com 1.10,2013-09-14 03:10:00,
2013-09-13 23:25:00,76.8,70.0,29.81,NNE,27,8.0,13.0,80,0.00,,,0.00,weatherlink.com 1.10,2013-09-14 03:25:00,
2013-09-13 23:40:00,75.8,70.0,29.81,NNE,28,0.0,14.0,83,0.00,,,0.00,weatherlink.com 1.10,2013-09-14 03:40:00,
2013-09-13 23:55:00,75.5,71.0,29.81,NNE,29,4.0,14.0,85,0.00,,,0.00,weatherlink.com 1.10,2013-09-14 03:55:00,